[[{"header":{"parameterUnit":"m.s-1","parameterCategory":1,"la1":30.2991,"la2":30.254,"lo1":-89.0895,"lo2":-89.0444,"dy":0.0017,"dx":0.0017,"nx":28,"ny":28,"refTime":"2023-08-23T21:00:00:Z","depth":0,"parameterNumber":2,"parameterNumberName":"U-component_of_WINDS"},"data":[0,0,0,0,0,0,0,0,0,0,0,0,0,0,0,0,0,0,0,0,0,0,0,0,0,0,0,0,0,0,0,0,0,0,0,0,0,0,0,0,0,0,0,0,0,0,0,0,0,0,0,0,0,0,0,0,0,0,-1.9147,-1.9147,0,-1.9184,-1.9184,-1.9185,-1.9167,-1.9166,-1.9165,-1.9164,-1.9202,-1.9204,-1.9206,0,0,0,0,0,0,0,0,0,0,0,0,0,-1.9063,-1.9064,-1.9147,-1.9147,-1.9148,-1.9184,-1.9184,-1.9185,-1.9167,-1.9166,-1.9165,-1.9164,-1.9202,-1.9204,-1.9206,0,0,0,0,0,0,0,0,0,0,0,0,0,-1.9099,-1.9065,-1.9147,-1.9144,-1.9144,-1.9184,-1.9184,-1.9185,-1.9167,-1.9166,-1.9165,-1.9163,-1.9201,-1.9204,-1.9206,-1.9252,0,0,-1.9215,-1.9216,0,0,0,0,0,0,0,0,-1.9097,-1.9102,-1.9144,-1.9144,-1.9144,-1.9169,-1.9168,-1.9207,-1.9168,-1.9158,-1.9164,-1.9163,-1.9192,-1.9196,-1.9206,-1.9254,-1.9255,-1.9215,-1.9217,-1.9218,-1.9219,0,0,0,0,0,0,0,-1.9095,-1.9101,-1.9162,-1.9144,-1.9144,-1.914,-1.9144,-1.9176,-1.9183,-1.9159,-1.9158,-1.9163,-1.9192,-1.9203,-1.9207,-1.9256,-1.9215,-1.9218,-1.9219,-1.9221,-1.9343,-1.9345,0,0,0,0,0,0,-1.9092,-1.9099,-1.916,-1.9163,-1.9117,-1.9143,-1.9147,-1.9163,-1.9182,-1.9184,-1.9164,-1.9162,-1.9199,-1.9203,-1.9208,-1.9262,-1.9218,-1.9221,-1.9222,-1.9342,-1.9344,-1.9345,0,0,0,0,0,0,-1.9091,-1.9098,-1.9159,-1.913,-1.9138,-1.9146,-1.9164,-1.9164,-1.9175,-1.9186,-1.9187,-1.9173,-1.9198,-1.9204,-1.9241,-1.9263,-1.9222,-1.9225,-1.934,-1.9342,-1.9344,-1.9372,0,0,0,0,0,0,-1.9088,-1.9097,-1.9114,-1.9131,-1.9139,-1.9191,-1.9165,-1.9166,-1.918,-1.9177,-1.9195,-1.9197,-1.9197,-1.9237,-1.9244,-1.9267,-1.9227,-1.9338,-1.9341,-1.9344,-1.9369,-1.9375,-1.938,0,0,0,0,0,-1.9085,-1.9121,-1.9115,-1.9123,-1.9161,-1.9193,-1.9198,-1.9197,-1.9182,-1.9199,-1.9206,-1.9196,-1.926,-1.9241,-1.9249,-1.9272,-1.9336,-1.934,-1.9344,-1.9367,-1.9374,-1.938,0,0,0,0,0,0,-1.9107,-1.9123,-1.9117,-1.9159,-1.9175,-1.919,-1.9211,-1.9205,-1.9225,-1.9222,-1.9221,-1.9225,-1.9264,-1.9272,-1.925,-1.9318,-1.9296,-1.9301,-1.9311,-1.9318,-1.9323,-1.932,-1.9229,0,0,0,0,0,-1.9116,-1.9141,-1.9153,-1.9189,-1.9197,-1.9203,-1.9217,-1.9216,-1.9232,-1.9238,-1.9248,-1.9264,-1.9288,-1.9303,-1.9326,-1.9371,-1.9374,-1.9391,-1.9396,-1.9401,-1.9405,-1.9429,-1.9437,-1.9357,-1.9357,-1.9357,0,0,-1.9137,-1.9148,-1.9164,-1.9194,-1.9206,-1.9231,-1.9209,-1.9236,-1.9255,-1.9242,-1.9278,-1.9286,-1.9304,-1.9345,-1.9364,-1.9353,-1.9428,-1.9405,-1.9409,-1.941,-1.9434,-1.9441,-1.9448,-1.9359,-1.9359,-1.9359,0,0,-1.9186,-1.9197,-1.9228,-1.9241,-1.9259,-1.9263,-1.9271,-1.9287,-1.9292,-1.9327,-1.9318,-1.9341,-1.9382,-1.9395,-1.9407,-1.9463,-1.9454,-1.947,-1.9498,-1.9522,-1.9528,-1.9534,-1.9553,-1.956,-1.9474,-1.9474,-1.9475,0,-1.9209,-1.9246,-1.9245,-1.9274,-1.9287,-1.9277,-1.9309,-1.9321,-1.9346,-1.9355,-1.9343,-1.9395,-1.9406,-1.945,-1.9464,-1.9474,-1.9483,-1.9467,-1.9527,-1.9533,-1.9538,-1.9557,-1.9564,-1.9476,-1.9476,-1.9476,-1.9476,0,-1.9273,-1.9299,-1.9322,-1.9346,-1.9362,-1.9392,-1.9396,-1.9413,-1.9411,-1.9416,-1.9453,-1.9466,-1.9491,-1.9502,-1.95,-1.9546,-1.9539,-1.9527,-1.9505,-1.9547,-1.9565,-1.9572,-1.9479,-1.9478,-1.9478,-1.9477,0,0,-1.9336,-1.936,-1.9368,-1.9379,-1.9399,-1.9419,-1.9449,-1.9473,-1.9488,-1.9506,-1.953,-1.9566,-1.9555,-1.9569,-1.9568,-1.9589,-1.9632,-1.9575,-1.9575,-1.9585,-1.9684,-1.9692,-1.97,-1.9627,-1.9628,-1.9629,-1.9682,0,-1.9387,-1.9438,-1.9439,-1.9486,-1.951,-1.9501,-1.9527,-1.9542,-1.9548,-1.957,-1.9577,-1.9602,-1.9586,-1.9594,-1.9615,-1.9622,-1.9652,-1.9619,-1.965,-1.9651,-1.9645,-1.9709,-1.9718,-1.9767,-1.9689,-1.969,-1.9691,0,-1.9452,-1.9472,-1.9522,-1.9538,-1.9548,-1.9572,-1.9594,-1.9615,-1.9632,-1.9635,-1.9651,-1.9647,-1.9678,-1.9656,-1.9698,-1.9675,-1.9688,-1.9694,-1.9696,-1.9699,-1.9673,-1.9713,-1.9783,-1.979,-1.9702,-1.9701,-1.97,0,-1.9493,-1.9532,-1.9567,-1.9577,-1.9597,-1.9613,-1.9623,-1.9638,-1.9653,-1.9673,-1.9683,-1.9706,-1.9719,-1.9738,-1.974,-1.9724,-1.9783,-1.9761,-1.9786,-1.9786,-1.9798,-1.9797,-1.9871,-1.9808,-1.9808,-1.9807,-1.9807,0,-1.9549,-1.958,-1.9585,-1.9607,-1.9641,-1.9642,-1.9676,-1.9684,-1.9698,-1.9721,-1.9716,-1.9737,-1.974,-1.9763,-1.9765,-1.98,-1.9806,-1.9809,-1.9809,-1.9809,-1.9809,-1.9817,-1.9814,-1.9809,-1.9809,-1.9809,-1.9808,0,-1.96,-1.9605,-1.9642,-1.9659,-1.9663,-1.9688,-1.9702,-1.9723,-1.9728,-1.9758,-1.9764,-1.9773,-1.98,-1.9805,-1.9836,-1.9838,-1.9879,-1.9876,-1.9873,-1.9872,-1.9897,-1.9895,-1.9978,-1.9989,-1.992,-1.992,-1.9921,0,-1.9635,-1.9659,-1.9677,-1.9692,-1.9702,-1.9726,-1.9741,-1.9743,-1.9759,-1.9781,-1.9799,-1.9825,-1.9846,-1.9888,-1.9898,-1.9922,-1.9919,-1.9947,-1.9923,-1.9922,-1.9919,-1.9918,-1.992,-1.9951,-1.9952,-1.9952,-1.9953,0,-1.9697,-1.9698,-1.972,-1.9743,-1.9761,-1.9779,-1.9796,-1.9809,-1.9813,-1.9832,-1.9858,-1.9875,-1.9907,-1.9932,-1.9956,-1.9966,-1.9961,-1.9961,-1.9968,-1.9968,-1.9965,-1.9966,-1.9885,-1.9959,-1.9958,-1.9958,-1.9957,-1.9957,-1.9741,-1.9761,-1.9778,-1.9802,-1.9815,-1.9832,-1.9852,-1.986,-1.9882,-1.9908,-1.9908,-1.9938,-1.9955,-1.9987,-1.9998,-2.0021,-2.0013,-2.0023,-2.0026,-2.0028,-2.003,-1.9962,-2.0026,-2.0026,-2.0026,-2.0026,-2.0025,0,-1.9802,-1.9813,-1.9835,-1.9859,-1.9879,-1.9871,-1.989,-1.9907,-1.9933,-1.9949,-1.997,-2.0001,-2.0026,-2.0038,-2.0062,-2.0079,-2.0077,-2.0085,-2.0084,-2.0086,-2.0037,-2.0028,-2.0086,-2.0086,-2.0086,-2.0086,-2.0086,-2.0086,-1.9837,-1.9871,-1.9874,-1.9915,-1.9925,-1.9953,-1.9965,-1.998,-1.9993,-2.0028,-2.0048,-2.0056,-2.007,-2.0096,-2.0119,-2.0122,-2.0131,-2.0141,-2.0143,-2.0096,-2.009,-2.0084,-2.0075,-2.0143,-2.0143,-2.019,-2.0191,-2.0191]},{"header":{"parameterUnit":"m.s-1","parameterCategory":1,"la1":30.2991,"la2":30.254,"lo1":-89.0895,"lo2":-89.0444,"dy":0.0017,"dx":0.0017,"nx":28,"ny":28,"refTime":"2023-08-23T21:00:00:Z","depth":0,"parameterNumber":3,"parameterNumberName":"V-component_of_WINDS"},"data":[0,0,0,0,0,0,0,0,0,0,0,0,0,0,0,0,0,0,0,0,0,0,0,0,0,0,0,0,0,0,0,0,0,0,0,0,0,0,0,0,0,0,0,0,0,0,0,0,0,0,0,0,0,0,0,0,0,0,3.6981,3.6981,0,3.6984,3.6984,3.6984,3.6943,3.6942,3.6941,3.694,3.6941,3.6942,3.6943,0,0,0,0,0,0,0,0,0,0,0,0,0,3.694,3.6941,3.6981,3.6981,3.6981,3.6984,3.6984,3.6984,3.6943,3.6942,3.694,3.6939,3.6941,3.6942,3.6944,0,0,0,0,0,0,0,0,0,0,0,0,0,3.6952,3.6941,3.6981,3.6961,3.6959,3.6984,3.6984,3.6984,3.6943,3.6942,3.694,3.6938,3.694,3.6942,3.6944,3.6987,0,0,3.6949,3.6949,0,0,0,0,0,0,0,0,3.6951,3.6954,3.6964,3.6963,3.6961,3.6961,3.697,3.6985,3.6944,3.6949,3.6939,3.6938,3.6949,3.695,3.6954,3.6987,3.6987,3.6949,3.695,3.6951,3.6951,0,0,0,0,0,0,0,3.6951,3.6953,3.6982,3.6964,3.6962,3.6952,3.6952,3.6973,3.6959,3.6949,3.6946,3.6947,3.6948,3.6953,3.6954,3.6987,3.6949,3.695,3.6951,3.6952,3.7056,3.7058,0,0,0,0,0,0,3.6953,3.6953,3.6982,3.6982,3.6952,3.6954,3.6954,3.6963,3.6958,3.6956,3.6948,3.6945,3.6951,3.6952,3.6954,3.7004,3.695,3.6952,3.6953,3.7055,3.7057,3.7059,0,0,0,0,0,0,3.6952,3.6956,3.6982,3.6967,3.6969,3.6957,3.6967,3.6964,3.6968,3.6958,3.6955,3.6956,3.6949,3.6952,3.6979,3.7003,3.6953,3.6954,3.7052,3.7055,3.7058,3.7105,0,0,0,0,0,0,3.6951,3.6956,3.6972,3.6968,3.697,3.7008,3.6969,3.6965,3.6971,3.6967,3.6964,3.6962,3.6948,3.6977,3.6981,3.7005,3.6956,3.705,3.7054,3.7057,3.7101,3.7109,3.7115,0,0,0,0,0,3.695,3.6985,3.6973,3.6977,3.6991,3.7009,3.7011,3.6995,3.6974,3.699,3.6983,3.6962,3.7001,3.698,3.6984,3.7009,3.7048,3.7053,3.7057,3.7098,3.7107,3.7115,0,0,0,0,0,0,3.6992,3.6984,3.6971,3.7006,3.7009,3.7002,3.7022,3.7005,3.7014,3.7009,3.6989,3.6988,3.7019,3.7017,3.6995,3.7051,3.7021,3.7026,3.7051,3.706,3.7067,3.7066,3.6957,0,0,0,0,0,3.7006,3.7022,3.7014,3.7045,3.7048,3.7035,3.7042,3.703,3.7032,3.7032,3.7028,3.703,3.7043,3.7051,3.7062,3.7101,3.71,3.712,3.7127,3.7133,3.7137,3.7157,3.7166,3.7072,3.7072,3.7072,0,0,3.7033,3.7031,3.7042,3.7054,3.7055,3.7071,3.7036,3.7055,3.7067,3.7035,3.7061,3.7058,3.7059,3.7093,3.7107,3.7092,3.7163,3.7139,3.7143,3.7144,3.7162,3.7171,3.7179,3.7075,3.7074,3.7074,0,0,3.7092,3.7093,3.7119,3.7121,3.7122,3.7114,3.712,3.7117,3.7114,3.7139,3.7116,3.713,3.7152,3.7154,3.7158,3.7219,3.72,3.7224,3.7261,3.728,3.7288,3.7294,3.7315,3.7323,3.7228,3.7228,3.7228,0,3.7126,3.7151,3.7134,3.7155,3.7161,3.7134,3.716,3.7162,3.7168,3.7172,3.7155,3.7183,3.7182,3.7215,3.723,3.7235,3.7241,3.7223,3.7288,3.7294,3.73,3.732,3.7328,3.7231,3.7231,3.723,3.723,0,3.7192,3.721,3.7231,3.7237,3.7245,3.7269,3.7255,3.7266,3.7253,3.7247,3.7273,3.7272,3.7282,3.7289,3.7277,3.7321,3.7311,3.7292,3.726,3.7312,3.733,3.7337,3.7235,3.7234,3.7233,3.7232,0,0,3.7276,3.7274,3.7281,3.7284,3.7285,3.7298,3.732,3.7331,3.7339,3.7345,3.7362,3.7383,3.7365,3.7369,3.7357,3.7375,3.7422,3.7353,3.7353,3.7365,3.747,3.7483,3.7492,3.741,3.7412,3.7413,3.7469,0,3.7332,3.737,3.7357,3.7395,3.7411,3.7386,3.7406,3.7409,3.7403,3.7416,3.741,3.7424,3.74,3.7403,3.7419,3.7413,3.7443,3.7409,3.7426,3.7426,3.7424,3.7502,3.7516,3.7569,3.7476,3.7477,3.7478,0,3.7402,3.7411,3.7451,3.7449,3.7455,3.7473,3.7482,3.7494,3.7497,3.7492,3.7498,3.7482,3.7504,3.7475,3.7504,3.7481,3.7488,3.7486,3.7488,3.7487,3.7454,3.7502,3.7585,3.7593,3.7489,3.7488,3.7488,0,3.7458,3.7479,3.7506,3.7509,3.7508,3.7521,3.7521,3.7522,3.753,3.7537,3.7542,3.7552,3.7557,3.7565,3.7553,3.7533,3.7584,3.7554,3.7579,3.758,3.759,3.7589,3.7674,3.7597,3.7597,3.7596,3.7596,0,3.7521,3.7546,3.7531,3.7547,3.7575,3.756,3.7588,3.7585,3.7587,3.7602,3.7582,3.7596,3.758,3.7593,3.7584,3.7609,3.7612,3.7608,3.7605,3.7609,3.7609,3.7611,3.7607,3.7599,3.7598,3.7598,3.7597,0,3.7586,3.7577,3.7605,3.7602,3.7602,3.7623,3.762,3.7635,3.7629,3.7649,3.7653,3.7643,3.7658,3.7647,3.7661,3.7655,3.7688,3.768,3.7687,3.7684,3.771,3.7707,3.7798,3.7809,3.7726,3.7727,3.7728,0,3.7626,3.7645,3.7645,3.7654,3.7656,3.7671,3.7678,3.7665,3.7673,3.7678,3.7692,3.7705,3.7715,3.7739,3.7733,3.7744,3.7736,3.7767,3.7737,3.774,3.7735,3.7733,3.7734,3.7772,3.7773,3.7774,3.7775,0,3.7698,3.7693,3.7705,3.7715,3.7725,3.7733,3.7738,3.7747,3.7733,3.7744,3.7759,3.7766,3.7781,3.7794,3.7803,3.7803,3.7786,3.7785,3.7791,3.7794,3.7797,3.7794,3.7702,3.7782,3.7781,3.7781,3.778,3.778,3.7751,3.7767,3.7769,3.7783,3.7786,3.7793,3.7806,3.7803,3.7815,3.7826,3.7818,3.7835,3.7838,3.7848,3.785,3.7864,3.7851,3.786,3.7862,3.7864,3.7868,3.7796,3.7866,3.7865,3.7865,3.7865,3.7865,0,3.7821,3.7821,3.7835,3.7844,3.7855,3.784,3.7846,3.7855,3.7871,3.7875,3.7885,3.7903,3.7915,3.7911,3.7922,3.7934,3.7927,3.7937,3.7935,3.7935,3.7879,3.7872,3.7943,3.7943,3.7943,3.7943,3.7943,3.7943,3.7858,3.7884,3.7879,3.7906,3.7907,3.7924,3.7929,3.7934,3.7937,3.7957,3.7968,3.7966,3.7966,3.7978,3.7989,3.7987,3.7991,3.8005,3.8,3.7947,3.7939,3.7932,3.7925,3.8006,3.8006,3.8055,3.8055,3.8056]}]]